When you browse on this site, cookies collect data to enhance your experience and personalize the content and advertising you see.
Visit our Privacy Policy to learn more. By continuing to use the site, you agree to this use of cookies and data.

Hourly Weather Gryada

Today, 12 July, Sunday

Time Temperature Precipitation Wind Pressure Humidity
00:00 +15°C° 0.4 mm 4 mps 751 mmHg 89%
01:00 +15°C° 0.4 mm 4 mps 751 mmHg 89%
02:00 +14°C° 0.4 mm 4 mps 751 mmHg 89%
03:00 +14°C° 0.3 mm 4 mps 751 mmHg 89%
04:00 +13°C° 0.3 mm 4 mps 751 mmHg 89%
05:00 +13°C° 0.3 mm 5 mps 751 mmHg 89%
06:00 +13°C° 0.1 mm 5 mps 751 mmHg 89%
07:00 +12°C° 0.1 mm 5 mps 751 mmHg 90%
08:00 +12°C° 0.1 mm 5 mps 752 mmHg 90%
09:00 +12°C° 0.9 mm 5 mps 752 mmHg 92%
10:00 +10°C° 0.9 mm 5 mps 752 mmHg 93%
11:00 +10°C° 0.9 mm 5 mps 752 mmHg 95%
12:00 +10°C° 0.7 mm 5 mps 752 mmHg 95%
13:00 +10°C° 0.7 mm 5 mps 753 mmHg 95%
14:00 +10°C° 0.7 mm 5 mps 753 mmHg 95%
15:00 +11°C° 0.7 mm 4 mps 753 mmHg 95%
16:00 +11°C° 0.7 mm 4 mps 753 mmHg 94%
17:00 +11°C° 0.7 mm 3 mps 753 mmHg 94%
18:00 +11°C° 0 mm 3 mps 753 mmHg 94%
19:00 +13°C° 0 mm 2 mps 753 mmHg 94%
20:00 +13°C° 0 mm 1 mps 753 mmHg 94%
21:00 +12°C° 0 mm 1 mps 753 mmHg 94%
22:00 +11°C° 0 mm 1 mps 752 mmHg 95%
23:00 +10°C° 0 mm 2 mps 752 mmHg 95%

Tomorrow, 13 July, Monday

Time Temperature Precipitation Wind Pressure Humidity
00:00 +10°C° 0 mm 2 mps 752 mmHg 95%
01:00 +9°C° 0 mm 2 mps 752 mmHg 96%
02:00 +9°C° 0 mm 2 mps 752 mmHg 96%
03:00 +9°C° 0 mm 2 mps 752 mmHg 96%
04:00 +9°C° 0 mm 3 mps 752 mmHg 96%
05:00 +9°C° 0 mm 3 mps 752 mmHg 96%
06:00 +11°C° 0 mm 4 mps 752 mmHg 92%
07:00 +12°C° 0 mm 4 mps 752 mmHg 87%
08:00 +14°C° 0 mm 4 mps 752 mmHg 83%
09:00 +15°C° 0 mm 4 mps 752 mmHg 75%
10:00 +17°C° 0 mm 4 mps 752 mmHg 68%
11:00 +17°C° 0 mm 5 mps 751 mmHg 61%
12:00 +19°C° 0 mm 5 mps 751 mmHg 59%
13:00 +19°C° 0 mm 5 mps 751 mmHg 57%
14:00 +20°C° 0 mm 5 mps 751 mmHg 55%
15:00 +20°C° 0 mm 4 mps 751 mmHg 57%
16:00 +20°C° 0 mm 4 mps 750 mmHg 59%
17:00 +20°C° 0 mm 4 mps 750 mmHg 61%
18:00 +18°C° 0 mm 3 mps 750 mmHg 69%
19:00 +17°C° 0 mm 3 mps 750 mmHg 77%
20:00 +15°C° 0 mm 2 mps 750 mmHg 85%
21:00 +14°C° 0 mm 2 mps 750 mmHg 88%
22:00 +13°C° 0 mm 2 mps 750 mmHg 91%
23:00 +12°C° 0 mm 2 mps 750 mmHg 94%

Day after tomorrow, 14 July, Tuesday

Time Temperature Precipitation Wind Pressure Humidity
00:00 +12°C° 0 mm 2 mps 750 mmHg 94%
01:00 +12°C° 0 mm 2 mps 750 mmHg 95%
02:00 +10°C° 0 mm 2 mps 750 mmHg 95%
03:00 +10°C° 0 mm 2 mps 750 mmHg 95%
04:00 +10°C° 0 mm 2 mps 750 mmHg 95%
05:00 +10°C° 0 mm 2 mps 750 mmHg 95%
06:00 +13°C° 0 mm 2 mps 750 mmHg 90%
07:00 +14°C° 0 mm 3 mps 750 mmHg 84%
08:00 +17°C° 0 mm 3 mps 750 mmHg 79%
09:00 +18°C° 0 mm 3 mps 750 mmHg 72%
10:00 +19°C° 0 mm 3 mps 750 mmHg 65%
11:00 +21°C° 0 mm 3 mps 750 mmHg 59%
12:00 +21°C° 0.1 mm 4 mps 750 mmHg 61%
13:00 +21°C° 0.1 mm 4 mps 749 mmHg 63%
14:00 +21°C° 0.1 mm 4 mps 749 mmHg 65%
15:00 +21°C° 0.2 mm 4 mps 749 mmHg 68%
16:00 +20°C° 0.2 mm 4 mps 749 mmHg 71%
17:00 +20°C° 0.2 mm 3 mps 749 mmHg 74%
18:00 +19°C° 0.1 mm 3 mps 749 mmHg 79%
19:00 +18°C° 0.1 mm 2 mps 749 mmHg 84%
20:00 +16°C° 0.1 mm 2 mps 749 mmHg 89%
21:00 +16°C° 0 mm 2 mps 749 mmHg 90%
22:00 +15°C° 0 mm 2 mps 749 mmHg 92%
23:00 +14°C° 0 mm 2 mps 749 mmHg 94%

15 July, Wednesday

Time Temperature Precipitation Wind Pressure Humidity
00:00 +14°C° 0 mm 2 mps 749 mmHg 94%
01:00 +13°C° 0 mm 2 mps 749 mmHg 94%
02:00 +13°C° 0 mm 2 mps 749 mmHg 95%
03:00 +13°C° 0 mm 2 mps 749 mmHg 95%
04:00 +12°C° 0 mm 2 mps 749 mmHg 95%
05:00 +12°C° 0 mm 2 mps 749 mmHg 95%
06:00 +14°C° 0 mm 2 mps 749 mmHg 88%
07:00 +16°C° 0 mm 2 mps 749 mmHg 80%
08:00 +18°C° 0 mm 2 mps 750 mmHg 73%
09:00 +19°C° 0 mm 2 mps 749 mmHg 66%
10:00 +21°C° 0 mm 2 mps 749 mmHg 60%
11:00 +23°C° 0 mm 2 mps 749 mmHg 53%
12:00 +23°C° 0 mm 2 mps 749 mmHg 52%
13:00 +24°C° 0 mm 2 mps 749 mmHg 51%
14:00 +24°C° 0 mm 2 mps 749 mmHg 51%
15:00 +24°C° 0 mm 2 mps 749 mmHg 52%
16:00 +24°C° 0 mm 2 mps 749 mmHg 54%
17:00 +24°C° 0 mm 2 mps 748 mmHg 55%
18:00 +22°C° 0 mm 1 mps 748 mmHg 63%
19:00 +20°C° 0 mm 1 mps 748 mmHg 70%
20:00 +19°C° 0 mm 1 mps 748 mmHg 78%
21:00 +18°C° 0 mm 1 mps 748 mmHg 81%
22:00 +15°C° 0 mm 0 mps 748 mmHg 83%
23:00 +14°C° 0 mm 0 mps 748 mmHg 86%

16 July, Thursday

Time Temperature Precipitation Wind Pressure Humidity
00:00 +14°C° 0 mm 0 mps 748 mmHg 86%
01:00 +13°C° 0 mm 0 mps 748 mmHg 87%
02:00 +13°C° 0 mm 0 mps 748 mmHg 88%
03:00 +13°C° 0 mm 0 mps 748 mmHg 88%
04:00 +13°C° 0 mm 0 mps 748 mmHg 88%
05:00 +13°C° 0 mm 0 mps 747 mmHg 88%
06:00 +16°C° 0 mm 1 mps 747 mmHg 83%
07:00 +19°C° 0 mm 1 mps 747 mmHg 78%
08:00 +20°C° 0 mm 1 mps 747 mmHg 72%
09:00 +22°C° 0 mm 1 mps 747 mmHg 68%
10:00 +23°C° 0 mm 1 mps 747 mmHg 64%
11:00 +25°C° 0 mm 1 mps 746 mmHg 59%
12:00 +25°C° 0.2 mm 1 mps 746 mmHg 57%
13:00 +26°C° 0.2 mm 1 mps 746 mmHg 56%
14:00 +26°C° 0.2 mm 1 mps 746 mmHg 54%
15:00 +26°C° 0.2 mm 1 mps 745 mmHg 57%
16:00 +25°C° 0.2 mm 1 mps 745 mmHg 60%
17:00 +25°C° 0.2 mm 1 mps 745 mmHg 64%
18:00 +23°C° 0.6 mm 1 mps 745 mmHg 71%
19:00 +20°C° 0.6 mm 2 mps 745 mmHg 78%
20:00 +19°C° 0.6 mm 2 mps 744 mmHg 85%
21:00 +18°C° 0.3 mm 2 mps 745 mmHg 88%
22:00 +17°C° 0.3 mm 2 mps 745 mmHg 91%
23:00 +17°C° 0.3 mm 2 mps 745 mmHg 94%

17 July, Friday

Time Temperature Precipitation Wind Pressure Humidity
00:00 +16°C° 0.2 mm 2 mps 744 mmHg 95%
01:00 +16°C° 0.2 mm 2 mps 744 mmHg 96%
02:00 +16°C° 0.2 mm 2 mps 744 mmHg 97%
03:00 +16°C° 0.5 mm 1 mps 744 mmHg 97%
04:00 +16°C° 0.5 mm 1 mps 744 mmHg 98%
05:00 +16°C° 0.5 mm 1 mps 744 mmHg 98%
06:00 +16°C° 1 mm 1 mps 744 mmHg 98%
07:00 +16°C° 1 mm 1 mps 744 mmHg 98%
08:00 +16°C° 1 mm 2 mps 744 mmHg 98%
09:00 +16°C° 0.6 mm 2 mps 744 mmHg 97%
10:00 +16°C° 0.6 mm 2 mps 744 mmHg 96%
11:00 +16°C° 0.6 mm 3 mps 744 mmHg 95%
12:00 +16°C° 0.4 mm 2 mps 744 mmHg 94%
13:00 +18°C° 0.4 mm 1 mps 744 mmHg 92%
14:00 +18°C° 0.4 mm 1 mps 744 mmHg 91%
15:00 +18°C° 0.5 mm 1 mps 744 mmHg 91%
16:00 +18°C° 0.5 mm 1 mps 744 mmHg 91%
17:00 +18°C° 0.5 mm 1 mps 744 mmHg 91%
18:00 +18°C° 0.7 mm 1 mps 744 mmHg 93%
19:00 +16°C° 0.7 mm 1 mps 744 mmHg 95%
20:00 +16°C° 0.7 mm 1 mps 744 mmHg 96%
21:00 +15°C° 0.6 mm 1 mps 744 mmHg 97%
22:00 +15°C° 0.6 mm 1 mps 744 mmHg 97%
23:00 +15°C° 0.6 mm 2 mps 744 mmHg 98%
Show more